Вернуться в каталог

STARLINK-4636

АктивенСвязьVLEO
NORAD 53731·PAYLOAD·🇺🇸 United States

Запущен Sep 5, 2022 с Cape Canaveral Space Force Station

Loading…

Ближайшие Пролёты (ближайшие 24 часа)

TLE

СвежийSource: CelesTrak SupGP

Эпоха: Sep 15, 2026, 01:52 UTC

1 53731C 22107AH  26258.07826389  .00068170  00000+0  30733-2 0  2584
2 53731  53.2105 113.4882 0004093  37.6265 327.1615 15.20472910    16

Отслеживайте STARLINK-4636 в реальном времени с AllMySat

Download on the App Store